Location: Devils Tower National Monument
(44.5904°N, 104.7201°W)
Time: 05:24:59
(UTC-07:00)

Envisat - Pass Details

Date: 02 February 2020
Orbit: 764 x 766 km, 98.1° (Epoch: 24 February)

Event Time Altitude Azimuth Distance (km) Brightness Sun altitude
Rises 05:55:22 0° 22° (NNE) 3,239 6.4 -14.8°
Reaches altitude 10° 05:57:56 10° 33° (NNE) 2,308 5.8 -14.3°
Maximum altitude 06:02:26 31° 95° (E) 1,308 5.0 -13.5°
Drops below altitude 10° 06:06:55 10° 158° (SSE) 2,292 5.9 -12.7°
Sets 06:09:27 0° 168° (SSE) 3,213 6.6 -12.3°
